When you browse on this site, cookies collect data to enhance your experience and personalize the content and advertising you see.
Visit our Privacy Policy to learn more. By continuing to use the site, you agree to this use of cookies and data.
  • în România
  • Lista ţărilor
  • Pe 7 zile
  • Temperatura apei
  • Hartă satelitară
  • Meteo pe hartă
  • Widget-uri
  • user-avatar
    Intrare

    Meteo pe oră la Oyem

    Astăzi, 11 Decembrie, Marţi

    Timp Temperatura Precipitaţii Vânt Presiune Umiditate
    00:00 +22°C° 0 mm 1 m/s 705 mmHg 97%
    01:00 +20°C° 0 mm 0 m/s 705 mmHg 98%
    02:00 +19°C° 0 mm 0 m/s 705 mmHg 98%
    03:00 +19°C° 0 mm 0 m/s 704 mmHg 98%
    04:00 +19°C° 0 mm 0 m/s 704 mmHg 99%
    05:00 +19°C° 0 mm 0 m/s 704 mmHg 98%
    06:00 +20°C° 0 mm 0 m/s 704 mmHg 97%
    07:00 +20°C° 0 mm 0 m/s 705 mmHg 95%
    08:00 +22°C° 0 mm 0 m/s 705 mmHg 86%
    09:00 +25°C° 0 mm 0 m/s 706 mmHg 77%
    10:00 +27°C° 0 mm 0 m/s 706 mmHg 68%
    11:00 +28°C° 0.1 mm 0 m/s 706 mmHg 61%
    12:00 +30°C° 0.1 mm 0 m/s 705 mmHg 55%
    13:00 +31°C° 0.1 mm 0 m/s 705 mmHg 49%
    14:00 +30°C° 0 mm 0 m/s 704 mmHg 53%
    15:00 +29°C° 0 mm 0 m/s 704 mmHg 56%
    16:00 +28°C° 0 mm 0 m/s 703 mmHg 59%
    17:00 +27°C° 0 mm 0 m/s 703 mmHg 64%
    18:00 +25°C° 0 mm 0 m/s 703 mmHg 68%
    19:00 +24°C° 0 mm 0 m/s 704 mmHg 73%
    20:00 +23°C° 0 mm 0 m/s 704 mmHg 76%
    21:00 +23°C° 0 mm 0 m/s 704 mmHg 80%
    22:00 +24°C° 0 mm 1 m/s 705 mmHg 83%
    23:00 +24°C° 0 mm 1 m/s 705 mmHg 86%

    Mâine, 12 Decembrie, Miercuri

    Timp Temperatura Precipitaţii Vânt Presiune Umiditate
    00:00 +23°C° 0 mm 1 m/s 705 mmHg 90%
    01:00 +23°C° 0 mm 1 m/s 704 mmHg 93%
    02:00 +23°C° 0 mm 1 m/s 704 mmHg 95%
    03:00 +22°C° 0 mm 1 m/s 704 mmHg 96%
    04:00 +22°C° 0 mm 1 m/s 704 mmHg 97%
    05:00 +22°C° 0 mm 1 m/s 704 mmHg 96%
    06:00 +22°C° 0 mm 1 m/s 704 mmHg 95%
    07:00 +23°C° 0 mm 1 m/s 705 mmHg 94%
    08:00 +24°C° 0 mm 1 m/s 705 mmHg 87%
    09:00 +25°C° 0 mm 1 m/s 706 mmHg 81%
    10:00 +27°C° 0 mm 1 m/s 706 mmHg 75%
    11:00 +28°C° 0.1 mm 1 m/s 706 mmHg 70%
    12:00 +29°C° 0.1 mm 1 m/s 705 mmHg 65%
    13:00 +30°C° 0.1 mm 1 m/s 705 mmHg 60%
    14:00 +30°C° 0.1 mm 1 m/s 704 mmHg 59%
    15:00 +31°C° 0.1 mm 1 m/s 704 mmHg 58%
    16:00 +29°C° 0.1 mm 0 m/s 703 mmHg 56%
    17:00 +26°C° 0.7 mm 0 m/s 703 mmHg 68%
    18:00 +24°C° 0.7 mm 0 m/s 704 mmHg 79%
    19:00 +24°C° 0.7 mm 1 m/s 704 mmHg 90%
    20:00 +24°C° 0.7 mm 1 m/s 705 mmHg 92%
    21:00 +23°C° 0.7 mm 1 m/s 705 mmHg 94%
    22:00 +23°C° 0.7 mm 1 m/s 706 mmHg 95%
    23:00 +23°C° 0 mm 1 m/s 705 mmHg 96%

    Poimâine, 13 Decembrie, Joi

    Timp Temperatura Precipitaţii Vânt Presiune Umiditate
    00:00 +22°C° 0 mm 1 m/s 705 mmHg 96%
    01:00 +22°C° 0 mm 1 m/s 705 mmHg 97%
    02:00 +22°C° 0 mm 1 m/s 704 mmHg 97%
    03:00 +22°C° 0 mm 1 m/s 704 mmHg 97%
    04:00 +21°C° 0 mm 1 m/s 704 mmHg 97%
    05:00 +22°C° 0.1 mm 1 m/s 704 mmHg 97%
    06:00 +22°C° 0.1 mm 1 m/s 705 mmHg 97%
    07:00 +22°C° 0.1 mm 1 m/s 706 mmHg 96%
    08:00 +24°C° 0 mm 1 m/s 706 mmHg 87%
    09:00 +26°C° 0 mm 1 m/s 707 mmHg 79%
    10:00 +27°C° 0 mm 1 m/s 707 mmHg 70%
    11:00 +29°C° 0 mm 1 m/s 706 mmHg 63%
    12:00 +31°C° 0 mm 1 m/s 705 mmHg 56%
    13:00 +32°C° 0 mm 1 m/s 705 mmHg 49%
    14:00 +31°C° 0.3 mm 1 m/s 704 mmHg 55%
    15:00 +30°C° 0.3 mm 1 m/s 703 mmHg 61%
    16:00 +27°C° 0.3 mm 0 m/s 703 mmHg 67%
    17:00 +25°C° 1 mm 0 m/s 703 mmHg 75%
    18:00 +24°C° 1 mm 0 m/s 703 mmHg 83%
    19:00 +22°C° 1 mm 0 m/s 704 mmHg 91%
    20:00 +24°C° 0 mm 1 m/s 704 mmHg 92%
    21:00 +23°C° 0 mm 1 m/s 705 mmHg 93%
    22:00 +23°C° 0 mm 1 m/s 705 mmHg 95%
    23:00 +23°C° 0 mm 1 m/s 705 mmHg 95%

    14 Decembrie, Vineri

    Timp Temperatura Precipitaţii Vânt Presiune Umiditate
    00:00 +23°C° 0 mm 1 m/s 705 mmHg 96%
    01:00 +23°C° 0 mm 1 m/s 704 mmHg 96%
    02:00 +23°C° 0 mm 1 m/s 704 mmHg 97%
    03:00 +22°C° 0 mm 1 m/s 704 mmHg 97%
    04:00 +22°C° 0 mm 1 m/s 704 mmHg 97%
    05:00 +20°C° 0 mm 0 m/s 704 mmHg 97%
    06:00 +21°C° 0 mm 0 m/s 705 mmHg 96%
    07:00 +21°C° 0 mm 0 m/s 705 mmHg 96%
    08:00 +24°C° 0 mm 1 m/s 706 mmHg 87%
    09:00 +26°C° 0 mm 1 m/s 706 mmHg 78%
    10:00 +28°C° 0 mm 1 m/s 707 mmHg 69%
    11:00 +28°C° 0.1 mm 1 m/s 706 mmHg 67%
    12:00 +29°C° 0.1 mm 1 m/s 705 mmHg 65%
    13:00 +28°C° 0.1 mm 0 m/s 704 mmHg 63%
    14:00 +28°C° 0.1 mm 0 m/s 704 mmHg 60%
    15:00 +28°C° 0.1 mm 0 m/s 704 mmHg 57%
    16:00 +29°C° 0.1 mm 0 m/s 703 mmHg 54%
    17:00 +27°C° 0.3 mm 0 m/s 703 mmHg 66%
    18:00 +24°C° 0.3 mm 0 m/s 704 mmHg 77%
    19:00 +24°C° 0.3 mm 1 m/s 704 mmHg 89%
    20:00 +23°C° 0.1 mm 1 m/s 704 mmHg 91%
    21:00 +23°C° 0.1 mm 1 m/s 705 mmHg 93%
    22:00 +23°C° 0.1 mm 1 m/s 705 mmHg 95%
    23:00 +23°C° 0 mm 1 m/s 705 mmHg 96%

    15 Decembrie, Sâmbătă

    Timp Temperatura Precipitaţii Vânt Presiune Umiditate
    00:00 +22°C° 0 mm 1 m/s 704 mmHg 97%
    01:00 +22°C° 0 mm 1 m/s 704 mmHg 98%
    02:00 +20°C° 0 mm 0 m/s 704 mmHg 98%
    03:00 +20°C° 0 mm 0 m/s 703 mmHg 98%
    04:00 +19°C° 0 mm 0 m/s 703 mmHg 98%
    05:00 +20°C° 0 mm 0 m/s 704 mmHg 98%
    06:00 +20°C° 0 mm 0 m/s 704 mmHg 97%
    07:00 +20°C° 0 mm 0 m/s 705 mmHg 96%
    08:00 +22°C° 0 mm 0 m/s 705 mmHg 89%
    09:00 +24°C° 0 mm 0 m/s 706 mmHg 81%
    10:00 +27°C° 0 mm 1 m/s 706 mmHg 73%
    11:00 +28°C° 0 mm 1 m/s 706 mmHg 69%
    12:00 +29°C° 0 mm 1 m/s 705 mmHg 65%
    13:00 +30°C° 0 mm 1 m/s 704 mmHg 60%
    14:00 +30°C° 0.2 mm 1 m/s 704 mmHg 60%
    15:00 +30°C° 0.2 mm 1 m/s 703 mmHg 61%
    16:00 +30°C° 0.2 mm 1 m/s 703 mmHg 61%
    17:00 +26°C° 0.4 mm 0 m/s 703 mmHg 70%
    18:00 +24°C° 0.4 mm 0 m/s 703 mmHg 80%
    19:00 +22°C° 0.4 mm 0 m/s 704 mmHg 89%
    20:00 +22°C° 0.2 mm 0 m/s 704 mmHg 91%
    21:00 +23°C° 0.2 mm 1 m/s 705 mmHg 93%
    22:00 +23°C° 0.2 mm 1 m/s 705 mmHg 94%
    23:00 +23°C° 0 mm 1 m/s 705 mmHg 95%

    16 Decembrie, Duminică

    Timp Temperatura Precipitaţii Vânt Presiune Umiditate
    00:00 +22°C° 0 mm 1 m/s 704 mmHg 97%
    01:00 +22°C° 0 mm 1 m/s 704 mmHg 98%
    02:00 +22°C° 0 mm 1 m/s 704 mmHg 98%
    03:00 +22°C° 0 mm 1 m/s 704 mmHg 98%
    04:00 +21°C° 0 mm 1 m/s 704 mmHg 98%
    05:00 +21°C° 0 mm 1 m/s 704 mmHg 98%
    06:00 +22°C° 0 mm 1 m/s 704 mmHg 97%
    07:00 +22°C° 0 mm 1 m/s 705 mmHg 96%
    08:00 +23°C° 0 mm 1 m/s 705 mmHg 90%
    09:00 +25°C° 0 mm 1 m/s 706 mmHg 83%
    10:00 +26°C° 0 mm 1 m/s 706 mmHg 76%
    11:00 +28°C° 0 mm 1 m/s 705 mmHg 69%
    12:00 +29°C° 0 mm 1 m/s 705 mmHg 62%
    13:00 +31°C° 0 mm 1 m/s 704 mmHg 55%
    14:00 +31°C° 0.1 mm 1 m/s 704 mmHg 56%
    15:00 +31°C° 0.1 mm 1 m/s 703 mmHg 56%
    16:00 +31°C° 0.1 mm 1 m/s 703 mmHg 57%
    17:00 +28°C° 0.3 mm 1 m/s 703 mmHg 68%
    18:00 +26°C° 0.3 mm 1 m/s 703 mmHg 78%
    19:00 +24°C° 0.3 mm 1 m/s 704 mmHg 89%
    20:00 +23°C° 0.2 mm 1 m/s 704 mmHg 91%
    21:00 +23°C° 0.2 mm 1 m/s 704 mmHg 92%
    22:00 +23°C° 0.2 mm 1 m/s 705 mmHg 94%
    23:00 +22°C° 0 mm 1 m/s 704 mmHg 95%
    Arată mai mult